Hourly Data Report for October 28, 2015

All times are specified in Local Standard Time (LST). Add 1 hour to adjust for Daylight Saving Time where and when it is observed.

CAPE DORSET A
NUNAVUT

64°13'49.000" N
76°31'30.000" W
48.20 m
2400637
71366
YTE

Download Data

Hourly Data (October 2015)
Hourly Data Report for October 28, 2015
Temp Definition
°C
Dew Point Temp Definition
°C
Rel Hum Definition
%
Wind Dir Definition
10's deg

Wind Spd Definition
km/h
Visibility Definition
km
Stn Press Definition
kPa
Hmdx Definition


Wind Chill Definition


Weather Definition


TIME
00:00 Legend Double Dagger -9.5 -11.7 84 6 13 12.9 100.14   -16 Snow
01:00 Legend Double Dagger -9.3 -10.9 88 6 13 16.1 100.21   -15 Snow
02:00 Legend Double Dagger -9.2 -11.3 85 5 17 16.1 100.29   -16 LegendNANA
03:00 Legend Double Dagger -8.9 -10.9 86 4 13 16.1 100.35   -15 LegendNANA
04:00 Legend Double Dagger -8.6 -11.9 77 5 13 16.1 100.43   -15 LegendNANA
05:00 Legend Double Dagger -9.1 -13.4 71 4 11 16.1 100.48   -15 LegendNANA
06:00 Legend Double Dagger -9.2 -14.2 67 4 9 16.1 100.54   -14 LegendNANA
07:00 Legend Double Dagger -9.4 -13.7 71 7 8 16.1 100.57   -14 LegendNANA
08:00 Legend Double Dagger -9.8 -13.6 74 7 8 16.1 100.60   -14 LegendNANA
09:00 Legend Double Dagger -8.9 -13.1 72   0 16.1 100.61     LegendNANA
10:00 Legend Double Dagger -9.7 -12.4 81 9 5 16.1 100.62   -13 LegendNANA
11:00 Legend Double Dagger -8.6 -11.0 83 7 8 16.1 100.63   -13 LegendNANA
12:00 Legend Double Dagger -7.8 -10.2 83   0 16.1 100.64     LegendNANA
13:00 Legend Double Dagger -7.8 -10.7 80 12 5 16.1 100.65   -10 LegendNANA
14:00 Legend Double Dagger -6.1 -11.1 68 16 8 16.1 100.64   -10 LegendNANA
15:00 Legend Double Dagger -6.7 -11.3 70 15 11 16.1 100.62   -12 LegendNANA
16:00 Legend Double Dagger -6.0 -9.4 77 16 15 16.1 100.61   -12 Snow
17:00 Legend Double Dagger -6.1 -7.1 93 19 8 1.6 100.58   -10 Snow
18:00 Legend Double Dagger -5.8 -7.1 90 19 21 16.1 100.57   -13 Snow
19:00 Legend Double Dagger -6.0 -7.6 88 22 15 14.5 100.54   -12 Snow
20:00 Legend Double Dagger -5.5 -8.9 77 20 9 16.1 100.50   -10 Snow
21:00 Legend Double Dagger -5.9 -7.6 88 16 24 8.1 100.46   -13 Snow
22:00 Legend Double Dagger -6.2 -7.4 92 15 26 2.0 100.43   -14 Snow
23:00 Legend Double Dagger -5.7 -8.3 82 14 22 12.9 100.37   -13 Snow

Notes on Data Quality.

Legend

  • E = Estimated
  • M = Missing
  • NA = Not Available
  • ‡ = Partner data that is not subject to review by the National Climate Archives
Date modified: